Weather in Jinju

South Korea     35°11′20″N   128°04′38″E
temp.,
°C
wind,
m/s
gust,
m/s
humid.,
%
clouds,
%
prec.,
mm/h
press.,
hPa
HPBL,
m
21 april, wed
wed2100:00+13w0148100 0.0 102211
03:00+12nw1146100 0.0 102210
06:00+11n114785 0.0 102210
09:00+19ene123559 0.0 1023321
12:00+24se232465 0.0 10221163
15:00+25s442492 0.0 10201399
18:00+20s2244100 0.0 102188
21:00+16wsw0049100 0.0 102216
22 april, thu
thu2200:00+15nw0050100 0.0 102214
03:00+14nw1150100 0.0 102111
06:00+14n2249100 0.0 102031
09:00+19ne1240100 0.0 1021281
12:00+23ese3626100 0.0 10191397
15:00+20sse3536100 0.0 1018347
18:00+19s1148100 0.0 101872
21:00+16nnw1152100 0.0 102019
23 april, fri
fri2300:00+15nw2154100 0.0 102026
03:00+15n2350100 0.0 102055
06:00+13nne41163100 0.1 1020576
09:00+16nne584497 0.1 1020790
12:00+21ne453599 0.0 10201406
15:00+22e553384 0.0 10182028
18:00+18e474166 0.0 1019560
21:00+14nne255676 0.0 1021236
24 april, sat
sat2400:00+11nne247186 0.0 1022104
03:00+10n247871 0.0 102197
06:00+10n247764 0.0 1022109
09:00+15ne235379 0.0 1022507
12:00+22ene123394 0.0 10211313
15:00+23sse333383 0.0 10181851
18:00+17s2359100 0.0 1019109
21:00+12sw12812 0.0 102053
25 april, sun
sun2500:00+11sw11860 0.0 102025
03:00+10nw11850 0.0 101916
06:00+10nne22860 0.0 102037
09:00+14ne347190 0.0 1021706
12:00+16ne236197 0.0 10201185
15:00+18e125499 0.1 10181206
18:00+16s3463100 0.0 1018339
21:00+12sw2378100 0.0 1021159